Location: Dover
(39.1580°N, 75.5250°W)
Time: 23:04:43
(UTC-04:00)

SeaSat 1 - Visible Passes

Search period start: 27 August 2014 00:00
Search period end: 06 September 2014 00:00
Orbit: 746 x 750 km, 108.0° (Epoch: 25 August)

Date Brightness Start Highest point End Pass type
(mag) Time Alt. Az. Time Alt. Az. Time Alt. Az.
27 Aug 4.4 21:28:18 15° ENE 21:29:03 15° NE 21:31:49 10° NNE visible
27 Aug 3.9 23:08:08 35° NNW 23:08:08 35° NNW 23:10:58 10° NNW visible
28 Aug 3.6 22:25:52 34° NNE 22:25:52 34° NNE 22:29:16 10° N visible
29 Aug 5.1 00:05:42 13° WNW 00:05:42 13° WNW 00:06:26 10° NW visible
29 Aug 4.3 21:43:36 17° NE 21:43:41 17° NE 21:46:46 10° N visible
29 Aug 4.3 23:23:26 27° NW 23:23:26 27° NW 23:25:39 10° NNW visible
30 Aug 3.9 22:41:10 31° N 22:41:10 31° N 22:44:02 10° NNW visible
31 Aug 4.3 21:58:53 18° NE 21:58:53 18° NE 22:01:40 10° N visible
31 Aug 4.7 23:38:43 21° NW 23:38:43 21° NW 23:40:19 10° NNW visible
01 Sep 4.2 22:56:26 27° N 22:56:26 27° N 22:58:48 10° NNW visible
02 Sep 4.4 22:14:09 19° NNE 22:14:09 19° NNE 22:16:33 10° N visible
02 Sep 5.1 23:54:00 16° NW 23:54:00 16° NW 23:54:58 10° NW visible
03 Sep 4.6 23:11:42 23° N 23:11:42 23° N 23:13:32 10° NNW visible
04 Sep 4.5 22:29:25 19° NNE 22:29:25 19° NNE 22:31:24 10° N visible
05 Sep 5.3 00:09:15 12° NW 00:09:15 12° NW 00:09:37 10° NW visible
05 Sep 4.9 23:26:57 18° NNW 23:26:57 18° NNW 23:28:16 10° NNW visible
